Location: Newark
(27.9675°N, 86.8869°E)
Time: 00:54:36
(UTC+00:00)

Altair - Pass Details

Date: 27 October 2019
Orbit: 1502 x 1682 km, 47.2° (Epoch: 13 November)

Event Time Altitude Azimuth Distance (km) Brightness Sun altitude
Rises 11:56:14 0° 299° (WNW) 4,883 11.0 -5.9°
Reaches altitude 10° 11:59:51 10° 290° (WNW) 3,913 10.7 -6.7°
Maximum altitude 12:08:09 30° 233° (SW) 2,662 9.5 -8.5°
Drops below altitude 10° 12:16:32 10° 177° (S) 3,929 9.7 -10.3°
Sets 12:20:13 0° 167° (SSE) 4,907 10.1 -11.1°
